Weather Roundup
Issued by NWS

Home | Current Version | Previous Version | Graphics & Text | Print | Product List | Glossary Off
Versions: 1 2 3 4 5 6 7 8 9 10 11 12 13 14 15 16 17 18 19 20 21 22 23 24 25 26 27 28 29 30 31 32 33 34 35 36 37 38 39 40 41 42 43 44 45 46 47 48 49 50

000
NZUS93 KARX 292310
HRRWXR

CURRENT HOURLY OBSERVATIONS ACROSS
MUCH OF THE UPPER MISSISSIPPI VALLEY
NATIONAL WEATHER SERVICE LA CROSSE WI
600 PM CDT SAT AUG 29 2015


...SOUTHEAST MINNESOTA...


CITY           SKY/WX    TMP DP  RH WIND       PRES   REMARKS
ROCHESTER      MOSUNNY   71  65  81 SE7       30.05S
ROCHESTER/MAYO FAIR      73  64  73 E5        30.05S
WINONA         CLOUDY    70  61  73 E3        30.04S
AUSTIN         MOSUNNY   73  64  73 CALM      30.04S
ALBERT LEA     PTSUNNY   73  64  73 CALM      30.04S
DODGE CENTER   PTSUNNY   73  63  68 CALM      30.05R
PRESTON        MOSUNNY   69  61  76 E3        30.05F
OWATONNA       PTSUNNY   73  64  73 CALM      30.03F
FARIBAULT      PTSUNNY   73  64  73 CALM      30.04S
$$

...ELSEWHERE IN MINNESOTA...


CITY           SKY/WX    TMP DP  RH WIND       PRES   REMARKS
MINNEAPOLIS    PTSUNNY   74  61  63 VRB5      30.02F
INTNL FALLS    CLOUDY    71  65  81 S3        29.93F
DULUTH         CLOUDY    72  62  71 SW9       30.00F
RED WING       PTSUNNY   73  61  64 SE5       30.02S
REDWOOD FALLS  PTSUNNY   74  65  73 SE7       30.01S
MANKATO        MOSUNNY   70  61  73 S3        30.04S
WORTHINGTON    MOSUNNY   70  63  78 S8        30.03F
FAIRMONT       MOSUNNY   70  59  68 S7        30.04F
$$

...SOUTHWEST WISCONSIN...


CITY           SKY/WX    TMP DP  RH WIND       PRES   REMARKS
LA CROSSE      CLOUDY    71  61  70 SE6       30.04S
PRAIRIE DU CHI CLOUDY    70  60  72 E8        30.03S
BOSCOBEL       CLOUDY    72  63  73 CALM      30.03F
LONE ROCK      CLOUDY    70  63  78 NE3       30.04S
PLATTEVILLE    CLOUDY    70  65  85 N8        30.03S
FORT MC COY    CLOUDY    70  58  67 CALM      30.05F
CAMP DOUGLAS   CLOUDY    69  69 100 SE3       30.04F
VIROQUA          N/A     69  62  78 CALM      30.05F
WIS DELLS      CLOUDY    68  61  77 NE5       30.04F
$$

...ELSEWHERE IN WISCONSIN...


CITY           SKY/WX    TMP DP  RH WIND       PRES   REMARKS
MILWAUKEE      DRZL/FOG  60  59  96 NE8       30.02S VSB 1/2
MADISON        CLOUDY    68  62  81 NE5       30.03S
GREEN BAY      CLOUDY    70  63  78 NE5       30.04S
EAU CLAIRE     SUNNY     70  61  73 CALM      30.04S
BLACK RVR FLS  CLOUDY    70  59  69 CALM      30.04S
MEDFORD        MOSUNNY   68  62  80 SW5       30.06R
WAUSAU         CLOUDY    68  59  73 S3        30.04F
WIS RAPIDS     NOT AVBL
MARSHFIELD     CLOUDY    67  58  72 SE3       30.06S
RICE LAKE      PTSUNNY   72  62  69 SW6       30.05S
$$

...NORTHEAST IOWA...


CITY           SKY/WX    TMP DP  RH WIND       PRES   REMARKS
DECORAH        CLOUDY    72  63  73 VRB5      30.04S
MASON CITY     MOSUNNY   72  66  81 CALM      30.06S
CHARLES CITY   MOSUNNY   73  66  78 NE3       30.05R
OELWEIN          N/A     70  63  78 E6        30.04F
$$

...ELSEWHERE IN IOWA...


CITY           SKY/WX    TMP DP  RH WIND       PRES   REMARKS
DES MOINES     CLOUDY    72  63  73 N6        30.02F
IOWA CITY      CLOUDY    75  68  78 N5        30.02R
FORT DODGE     CLOUDY    68  61  77 W3        30.06S
$$

...NORTHERN ILLINOIS...


CITY           SKY/WX    TMP DP  RH WIND       PRES   REMARKS
CHICAGO-OHARE  LGT RAIN  69  67  93 NE5       30.00S FOG
CHICAGO-MIDWAY LGT RAIN  72  67  84 VRB3      29.99F
MOLINE         CLOUDY    73  67  81 NE6       30.00R
ROCKFORD       CLOUDY    72  64  76 N5        30.02S
PEORIA         PTSUNNY   81  68  64 CALM      29.98S
$$

NOTE: "FAIR" INDICATES FEW OR NO CLOUDS BELOW 12,000 FEET WITH NO
SIGNIFICANT WEATHER AND/OR OBSTRUCTIONS TO VISIBILITY. WIND
SPEEDS ARE IN MILES-PER-HOUR.



USA.gov is the U.S. government's official web portal to all federal, state and local government web resources and services.